Hourly Data Report for June 29, 2018

LONDON CS
ONTARIO
Current Station Operator: ECCC - MSC

43°02'00.000" N
81°09'00.000" W
278.00 m
6144478
71622
WSN

Download Data

Hourly Data (June 2018)
Hourly Data Report for June 29, 2018
TIME Temp Definition
°C
Dew Point Definition
°C
Rel Hum Definition
%
Wind Dir Definition
10's deg

Wind Spd Definition
km/h
Visibility Definition
km
Stn Press Definition
kPa
Hmdx Definition


Wind Chill Definition


Weather Definition


00:00 20.8 18.4 86 LegendMM LegendMM   98.21 27   LegendNANA
01:00 19.7 18.2 91 LegendMM LegendMM   98.19     LegendNANA
02:00 18.0 17.1 94 LegendMM LegendMM   98.23     LegendNANA
03:00 17.9 17.4 97 LegendMM LegendMM   98.24     LegendNANA
04:00 16.2 15.1 94 LegendMM LegendMM   98.26     LegendNANA
05:00 16.1 14.9 93 LegendMM LegendMM   98.33     LegendNANA
06:00 18.3 17.1 93 LegendMM LegendMM   98.38     LegendNANA
07:00 21.1 18.8 86 LegendMM LegendMM   98.42 28   LegendNANA
08:00 24.4 19.8 75 LegendMM LegendMM   98.46 32   LegendNANA
09:00 26.8 19.5 64 LegendMM LegendMM   98.46 34   LegendNANA
10:00 28.6 17.3 50 LegendMM LegendMM   98.52 34   LegendNANA
11:00 29.7 18.6 51 LegendMM LegendMM   98.49 36   LegendNANA
12:00 29.8 17.3 47 LegendMM LegendMM   98.49 35   LegendNANA
13:00 28.9 18.2 53 LegendMM LegendMM   98.45 35   LegendNANA
14:00 29.6 18.2 51 LegendMM LegendMM   98.42 36   LegendNANA
15:00 29.0 19.4 56 LegendMM LegendMM   98.45 36   LegendNANA
16:00 28.8 19.7 58 LegendMM LegendMM   98.46 36   LegendNANA
17:00 28.5 19.5 58 LegendMM LegendMM   98.39 36   LegendNANA
18:00 28.1 18.0 54 LegendMM LegendMM   98.33 34   LegendNANA
19:00 27.6 17.5 54 LegendMM LegendMM   98.34 33   LegendNANA
20:00 25.7 19.0 67 LegendMM LegendMM   98.23 32   LegendNANA
21:00 23.6 18.6 74 LegendMM LegendMM   98.33 30   LegendNANA
22:00 22.5 19.0 81 LegendMM LegendMM   98.34 29   LegendNANA
23:00 22.4 18.8 80 LegendMM LegendMM   98.34 29   LegendNANA

Notes on Data Quality.

Legend

  • E = Estimated
  • M = Missing
  • NA = Not Available*
  • [empty] = Indicates an unobserved value
Date modified: